Карточка аэропорта UWWW

Внимание!
Информация на этой странице в стадии наполнения.
Если вы не увидели какой-то информации, или заметили неточность - пожалуйста сообщите нам!
Спасибо!
Команда RU-STAFF
Название аэропортаКурумоч
Название аэропорта (англ.)Kurumoch
Превышение476 ft. (145.1 m.)
Координаты53°30.102', 50°9.3000000000001'
Высота перехода4000 ft
Эшелон переходаQNH>=1013hPa:FL50; QNH<1013hPa:FL60; QNH<977hPa:FL70
Коды ответчика4140-4177
Зона ОрВДСамара РПИ (UWWW)
Данные METARUWWW 152230Z 11002MPS 040V130 9999 SCT033CB 22/16 Q1012 R15/150056 NOSIG RMK QFE748/0997
Проноз погоды (TAF)UWWW 151950Z 1521/1621 10003G09MPS 9999 SCT030 TX31/1611Z TN19/1601Z TEMPO 1521/1522 25006G12MPS -TSRA BKN016CB TEMPO 1522/1602 0400 FG VV003 TEMPO 1602/1612 2000 TSRA BKN020CB
NOTAMshow/hide NOTAM
AWOS   TABLE

Информация о ВПП

ВПП Длина ВПП (м.) Покрытие Курс ВПП Частота ILS
052553Асфальтобетон49110.5
232553Асфальтобетон229109.7
153003Железобетон148111.9
333003Железобетон328111.1

Диспетчерские позиции

Позывной Наименование органа УВД Частота
UWWW_GNDСамара-Руление119.000
UWWW_TWRСамара-Старт118.200
UWWW_R_APPСамара-Круг128.000
UWWW_APPСамара-Подход124.600
UWWWFM1Машина сопровождения119.000



Спутниковое изображение